Location: Jaite
(41.2884°N, 81.5737°W)
Time: 12:50:51
(UTC+00:00)

Cosmos 1441 Rocket - Pass Details

Date: 15 November 2025
Orbit: 424 x 448 km, 81.1° (Epoch: 11 December)

Event Time Altitude Azimuth Distance (km) Brightness Sun altitude
Rises 11:20:24 0° 175° (S) 2,393 6.9 -10.4°
Reaches altitude 10° 11:22:29 10° 168° (SSE) 1,526 6.0 -10.1°
Maximum altitude 11:25:40 43° 96° (E) 613 4.2 -9.5°
Drops below altitude 10° 11:28:50 10° 23° (NNE) 1,528 5.7 -8.9°
Sets 11:30:56 0° 17° (NNE) 2,397 6.6 -8.5°
